locationName,lineName,date,time,countIn,countOut
��Ƃ�̍L��,�����w����,2022/7/1,0:00,5,9
��Ƃ�̍L��,�����w����,2022/7/1,1:00,9,3
��Ƃ�̍L��,�����w����,2022/7/1,2:00,8,4
��Ƃ�̍L��,�����w����,2022/7/1,3:00,7,7
��Ƃ�̍L��,�����w����,2022/7/1,4:00,15,5
��Ƃ�̍L��,�����w����,2022/7/1,5:00,17,15
��Ƃ�̍L��,�����w����,2022/7/1,6:00,25,32
��Ƃ�̍L��,�����w����,2022/7/1,7:00,31,160
��Ƃ�̍L��,�����w����,2022/7/1,8:00,32,162
��Ƃ�̍L��,�����w����,2022/7/1,9:00,30,80
��Ƃ�̍L��,�����w����,2022/7/1,10:00,38,80
��Ƃ�̍L��,�����w����,2022/7/1,11:00,43,108
��Ƃ�̍L��,�����w����,2022/7/1,12:00,86,77
��Ƃ�̍L��,�����w����,2022/7/1,13:00,69,68
��Ƃ�̍L��,�����w����,2022/7/1,14:00,25,62
��Ƃ�̍L��,�����w����,2022/7/1,15:00,40,78
��Ƃ�̍L��,�����w����,2022/7/1,16:00,55,68
��Ƃ�̍L��,�����w����,2022/7/1,17:00,59,63
��Ƃ�̍L��,�����w����,2022/7/1,18:00,37,70
��Ƃ�̍L��,�����w����,2022/7/1,19:00,57,63
��Ƃ�̍L��,�����w����,2022/7/1,20:00,70,65
��Ƃ�̍L��,�����w����,2022/7/1,21:00,95,33
��Ƃ�̍L��,�����w����,2022/7/1,22:00,99,24
��Ƃ�̍L��,�����w����,2022/7/1,23:00,33,15
��Ƃ�̍L��,�����w����,2022/7/2,0:00,6,5
��Ƃ�̍L��,�����w����,2022/7/2,1:00,3,9
��Ƃ�̍L��,�����w����,2022/7/2,2:00,15,9
��Ƃ�̍L��,�����w����,2022/7/2,3:00,3,6
��Ƃ�̍L��,�����w����,2022/7/2,4:00,5,6
��Ƃ�̍L��,�����w����,2022/7/2,5:00,15,14
��Ƃ�̍L��,�����w����,2022/7/2,6:00,25,28
��Ƃ�̍L��,�����w����,2022/7/2,7:00,12,113
��Ƃ�̍L��,�����w����,2022/7/2,8:00,27,96
��Ƃ�̍L��,�����w����,2022/7/2,9:00,53,92
��Ƃ�̍L��,�����w����,2022/7/2,10:00,80,121
��Ƃ�̍L��,�����w����,2022/7/2,11:00,84,133
��Ƃ�̍L��,�����w����,2022/7/2,12:00,109,136
��Ƃ�̍L��,�����w����,2022/7/2,13:00,102,160
��Ƃ�̍L��,�����w����,2022/7/2,14:00,91,160
��Ƃ�̍L��,�����w����,2022/7/2,15:00,99,100
��Ƃ�̍L��,�����w����,2022/7/2,16:00,76,95
��Ƃ�̍L��,�����w����,2022/7/2,17:00,88,85
��Ƃ�̍L��,�����w����,2022/7/2,18:00,80,79
��Ƃ�̍L��,�����w����,2022/7/2,19:00,70,56
��Ƃ�̍L��,�����w����,2022/7/2,20:00,64,65
��Ƃ�̍L��,�����w����,2022/7/2,21:00,55,53
��Ƃ�̍L��,�����w����,2022/7/2,22:00,84,30
��Ƃ�̍L��,�����w����,2022/7/2,23:00,42,20
��Ƃ�̍L��,�����w����,2022/7/3,0:00,6,16
��Ƃ�̍L��,�����w����,2022/7/3,1:00,6,4
��Ƃ�̍L��,�����w����,2022/7/3,2:00,1,3
��Ƃ�̍L��,�����w����,2022/7/3,3:00,4,6
��Ƃ�̍L��,�����w����,2022/7/3,4:00,6,2
��Ƃ�̍L��,�����w����,2022/7/3,5:00,8,9
��Ƃ�̍L��,�����w����,2022/7/3,6:00,16,15
��Ƃ�̍L��,�����w����,2022/7/3,7:00,20,42
��Ƃ�̍L��,�����w����,2022/7/3,8:00,42,61
��Ƃ�̍L��,�����w����,2022/7/3,9:00,45,79
��Ƃ�̍L��,�����w����,2022/7/3,10:00,92,101
��Ƃ�̍L��,�����w����,2022/7/3,11:00,110,127
��Ƃ�̍L��,�����w����,2022/7/3,12:00,128,157
��Ƃ�̍L��,�����w����,2022/7/3,13:00,105,160
��Ƃ�̍L��,�����w����,2022/7/3,14:00,84,159
��Ƃ�̍L��,�����w����,2022/7/3,15:00,74,104
��Ƃ�̍L��,�����w����,2022/7/3,16:00,75,86
��Ƃ�̍L��,�����w����,2022/7/3,17:00,182,66
��Ƃ�̍L��,�����w����,2022/7/3,18:00,152,66
��Ƃ�̍L��,�����w����,2022/7/3,19:00,124,33
��Ƃ�̍L��,�����w����,2022/7/3,20:00,156,36
��Ƃ�̍L��,�����w����,2022/7/3,21:00,166,27
��Ƃ�̍L��,�����w����,2022/7/3,22:00,183,15
��Ƃ�̍L��,�����w����,2022/7/3,23:00,58,7
��Ƃ�̍L��,�����w����,2022/7/4,0:00,7,17
��Ƃ�̍L��,�����w����,2022/7/4,1:00,4,6
��Ƃ�̍L��,�����w����,2022/7/4,2:00,2,1
��Ƃ�̍L��,�����w����,2022/7/4,3:00,6,11
��Ƃ�̍L��,�����w����,2022/7/4,4:00,4,1
��Ƃ�̍L��,�����w����,2022/7/4,5:00,18,14
��Ƃ�̍L��,�����w����,2022/7/4,6:00,22,23
��Ƃ�̍L��,�����w����,2022/7/4,7:00,26,58
��Ƃ�̍L��,�����w����,2022/7/4,8:00,30,100
��Ƃ�̍L��,�����w����,2022/7/4,9:00,42,53
��Ƃ�̍L��,�����w����,2022/7/4,10:00,49,65
��Ƃ�̍L��,�����w����,2022/7/4,11:00,47,65
��Ƃ�̍L��,�����w����,2022/7/4,12:00,66,52
��Ƃ�̍L��,�����w����,2022/7/4,13:00,80,67
��Ƃ�̍L��,�����w����,2022/7/4,14:00,48,57
��Ƃ�̍L��,�����w����,2022/7/4,15:00,64,54
��Ƃ�̍L��,�����w����,2022/7/4,16:00,62,38
��Ƃ�̍L��,�����w����,2022/7/4,17:00,57,48
��Ƃ�̍L��,�����w����,2022/7/4,18:00,202,78
��Ƃ�̍L��,�����w����,2022/7/4,19:00,260,83
��Ƃ�̍L��,�����w����,2022/7/4,20:00,319,89
��Ƃ�̍L��,�����w����,2022/7/4,21:00,278,94
��Ƃ�̍L��,�����w����,2022/7/4,22:00,34,39
��Ƃ�̍L��,�����w����,2022/7/4,23:00,19,12
��Ƃ�̍L��,�����w����,2022/7/5,0:00,21,11
��Ƃ�̍L��,�����w����,2022/7/5,1:00,24,13
��Ƃ�̍L��,�����w����,2022/7/5,2:00,34,14
��Ƃ�̍L��,�����w����,2022/7/5,3:00,43,23
��Ƃ�̍L��,�����w����,2022/7/5,4:00,40,32
��Ƃ�̍L��,�����w����,2022/7/5,5:00,62,29
��Ƃ�̍L��,�����w����,2022/7/5,6:00,61,33
��Ƃ�̍L��,�����w����,2022/7/5,7:00,64,124
��Ƃ�̍L��,�����w����,2022/7/5,8:00,82,117
��Ƃ�̍L��,�����w����,2022/7/5,9:00,55,83
��Ƃ�̍L��,�����w����,2022/7/5,10:00,64,85
��Ƃ�̍L��,�����w����,2022/7/5,11:00,56,76
��Ƃ�̍L��,�����w����,2022/7/5,12:00,53,60
��Ƃ�̍L��,�����w����,2022/7/5,13:00,68,77
��Ƃ�̍L��,�����w����,2022/7/5,14:00,48,80
��Ƃ�̍L��,�����w����,2022/7/5,15:00,40,58
��Ƃ�̍L��,�����w����,2022/7/5,16:00,59,54
��Ƃ�̍L��,�����w����,2022/7/5,17:00,49,43
��Ƃ�̍L��,�����w����,2022/7/5,18:00,104,62
��Ƃ�̍L��,�����w����,2022/7/5,19:00,119,92
��Ƃ�̍L��,�����w����,2022/7/5,20:00,126,59
��Ƃ�̍L��,�����w����,2022/7/5,21:00,171,233
��Ƃ�̍L��,�����w����,2022/7/5,22:00,135,169
��Ƃ�̍L��,�����w����,2022/7/5,23:00,6,15
��Ƃ�̍L��,�����w����,2022/7/6,0:00,13,7
��Ƃ�̍L��,�����w����,2022/7/6,1:00,8,1
��Ƃ�̍L��,�����w����,2022/7/6,2:00,3,5
��Ƃ�̍L��,�����w����,2022/7/6,3:00,8,7
��Ƃ�̍L��,�����w����,2022/7/6,4:00,15,6
��Ƃ�̍L��,�����w����,2022/7/6,5:00,13,22
��Ƃ�̍L��,�����w����,2022/7/6,6:00,22,21
��Ƃ�̍L��,�����w����,2022/7/6,7:00,34,153
��Ƃ�̍L��,�����w����,2022/7/6,8:00,38,119
��Ƃ�̍L��,�����w����,2022/7/6,9:00,24,82
��Ƃ�̍L��,�����w����,2022/7/6,10:00,39,79
��Ƃ�̍L��,�����w����,2022/7/6,11:00,48,78
��Ƃ�̍L��,�����w����,2022/7/6,12:00,43,90
��Ƃ�̍L��,�����w����,2022/7/6,13:00,35,63
��Ƃ�̍L��,�����w����,2022/7/6,14:00,40,67
��Ƃ�̍L��,�����w����,2022/7/6,15:00,76,69
��Ƃ�̍L��,�����w����,2022/7/6,16:00,163,76
��Ƃ�̍L��,�����w����,2022/7/6,17:00,94,84
��Ƃ�̍L��,�����w����,2022/7/6,18:00,27,59
��Ƃ�̍L��,�����w����,2022/7/6,19:00,85,66
��Ƃ�̍L��,�����w����,2022/7/6,20:00,203,105
��Ƃ�̍L��,�����w����,2022/7/6,21:00,304,84
��Ƃ�̍L��,�����w����,2022/7/6,22:00,59,31
��Ƃ�̍L��,�����w����,2022/7/6,23:00,14,8
��Ƃ�̍L��,�����w����,2022/7/7,0:00,8,8
��Ƃ�̍L��,�����w����,2022/7/7,1:00,12,3
��Ƃ�̍L��,�����w����,2022/7/7,2:00,19,10
��Ƃ�̍L��,�����w����,2022/7/7,3:00,7,7
��Ƃ�̍L��,�����w����,2022/7/7,4:00,5,4
��Ƃ�̍L��,�����w����,2022/7/7,5:00,16,13
��Ƃ�̍L��,�����w����,2022/7/7,6:00,17,31
��Ƃ�̍L��,�����w����,2022/7/7,7:00,34,144
��Ƃ�̍L��,�����w����,2022/7/7,8:00,44,114
��Ƃ�̍L��,�����w����,2022/7/7,9:00,36,59
��Ƃ�̍L��,�����w����,2022/7/7,10:00,47,76
��Ƃ�̍L��,�����w����,2022/7/7,11:00,48,69
��Ƃ�̍L��,�����w����,2022/7/7,12:00,50,91
��Ƃ�̍L��,�����w����,2022/7/7,13:00,41,68
��Ƃ�̍L��,�����w����,2022/7/7,14:00,44,56
��Ƃ�̍L��,�����w����,2022/7/7,15:00,29,56
��Ƃ�̍L��,�����w����,2022/7/7,16:00,77,79
��Ƃ�̍L��,�����w����,2022/7/7,17:00,117,90
��Ƃ�̍L��,�����w����,2022/7/7,18:00,162,149
��Ƃ�̍L��,�����w����,2022/7/7,19:00,96,137
��Ƃ�̍L��,�����w����,2022/7/7,20:00,36,70
��Ƃ�̍L��,�����w����,2022/7/7,21:00,37,50
��Ƃ�̍L��,�����w����,2022/7/7,22:00,5,19
��Ƃ�̍L��,�����w����,2022/7/7,23:00,9,10
��Ƃ�̍L��,�����w����,2022/7/8,0:00,5,6
��Ƃ�̍L��,�����w����,2022/7/8,1:00,7,0
��Ƃ�̍L��,�����w����,2022/7/8,2:00,10,2
��Ƃ�̍L��,�����w����,2022/7/8,3:00,9,5
��Ƃ�̍L��,�����w����,2022/7/8,4:00,10,7
��Ƃ�̍L��,�����w����,2022/7/8,5:00,19,13
��Ƃ�̍L��,�����w����,2022/7/8,6:00,21,27
��Ƃ�̍L��,�����w����,2022/7/8,7:00,37,63
��Ƃ�̍L��,�����w����,2022/7/8,8:00,48,97
��Ƃ�̍L��,�����w����,2022/7/8,9:00,49,58
��Ƃ�̍L��,�����w����,2022/7/8,10:00,75,76
��Ƃ�̍L��,�����w����,2022/7/8,11:00,79,69
��Ƃ�̍L��,�����w����,2022/7/8,12:00,78,75
��Ƃ�̍L��,�����w����,2022/7/8,13:00,52,57
��Ƃ�̍L��,�����w����,2022/7/8,14:00,56,72
��Ƃ�̍L��,�����w����,2022/7/8,15:00,66,75
��Ƃ�̍L��,�����w����,2022/7/8,16:00,71,57
��Ƃ�̍L��,�����w����,2022/7/8,17:00,55,81
��Ƃ�̍L��,�����w����,2022/7/8,18:00,75,76
��Ƃ�̍L��,�����w����,2022/7/8,19:00,39,58
��Ƃ�̍L��,�����w����,2022/7/8,20:00,28,39
��Ƃ�̍L��,�����w����,2022/7/8,21:00,26,61
��Ƃ�̍L��,�����w����,2022/7/8,22:00,28,41
��Ƃ�̍L��,�����w����,2022/7/8,23:00,35,7
��Ƃ�̍L��,�����w����,2022/7/9,0:00,15,14
��Ƃ�̍L��,�����w����,2022/7/9,1:00,17,4
��Ƃ�̍L��,�����w����,2022/7/9,2:00,15,2
��Ƃ�̍L��,�����w����,2022/7/9,3:00,9,8
��Ƃ�̍L��,�����w����,2022/7/9,4:00,17,9
��Ƃ�̍L��,�����w����,2022/7/9,5:00,22,10
��Ƃ�̍L��,�����w����,2022/7/9,6:00,26,13
��Ƃ�̍L��,�����w����,2022/7/9,7:00,34,34
��Ƃ�̍L��,�����w����,2022/7/9,8:00,45,57
��Ƃ�̍L��,�����w����,2022/7/9,9:00,49,80
��Ƃ�̍L��,�����w����,2022/7/9,10:00,84,106
��Ƃ�̍L��,�����w����,2022/7/9,11:00,93,109
��Ƃ�̍L��,�����w����,2022/7/9,12:00,107,132
��Ƃ�̍L��,�����w����,2022/7/9,13:00,110,182
��Ƃ�̍L��,�����w����,2022/7/9,14:00,133,178
��Ƃ�̍L��,�����w����,2022/7/9,15:00,164,143
��Ƃ�̍L��,�����w����,2022/7/9,16:00,100,129
��Ƃ�̍L��,�����w����,2022/7/9,17:00,100,98
��Ƃ�̍L��,�����w����,2022/7/9,18:00,74,71
��Ƃ�̍L��,�����w����,2022/7/9,19:00,51,89
��Ƃ�̍L��,�����w����,2022/7/9,20:00,34,79
��Ƃ�̍L��,�����w����,2022/7/9,21:00,31,38
��Ƃ�̍L��,�����w����,2022/7/9,22:00,23,30
��Ƃ�̍L��,�����w����,2022/7/9,23:00,23,30
��Ƃ�̍L��,�����w����,2022/7/10,0:00,47,124
��Ƃ�̍L��,�����w����,2022/7/10,1:00,25,38
��Ƃ�̍L��,�����w����,2022/7/10,2:00,21,17
��Ƃ�̍L��,�����w����,2022/7/10,3:00,8,7
��Ƃ�̍L��,�����w����,2022/7/10,4:00,15,5
��Ƃ�̍L��,�����w����,2022/7/10,5:00,19,13
��Ƃ�̍L��,�����w����,2022/7/10,6:00,18,20
��Ƃ�̍L��,�����w����,2022/7/10,7:00,20,34
��Ƃ�̍L��,�����w����,2022/7/10,8:00,25,48
��Ƃ�̍L��,�����w����,2022/7/10,9:00,35,57
��Ƃ�̍L��,�����w����,2022/7/10,10:00,55,114
��Ƃ�̍L��,�����w����,2022/7/10,11:00,86,123
��Ƃ�̍L��,�����w����,2022/7/10,12:00,142,195
��Ƃ�̍L��,�����w����,2022/7/10,13:00,144,177
��Ƃ�̍L��,�����w����,2022/7/10,14:00,138,188
��Ƃ�̍L��,�����w����,2022/7/10,15:00,92,204
��Ƃ�̍L��,�����w����,2022/7/10,16:00,93,121
��Ƃ�̍L��,�����w����,2022/7/10,17:00,60,78
��Ƃ�̍L��,�����w����,2022/7/10,18:00,27,58
��Ƃ�̍L��,�����w����,2022/7/10,19:00,39,49
��Ƃ�̍L��,�����w����,2022/7/10,20:00,43,57
��Ƃ�̍L��,�����w����,2022/7/10,21:00,32,28
��Ƃ�̍L��,�����w����,2022/7/10,22:00,12,9
��Ƃ�̍L��,�����w����,2022/7/10,23:00,4,4
��Ƃ�̍L��,�����w����,2022/7/11,0:00,11,6
��Ƃ�̍L��,�����w����,2022/7/11,1:00,9,3
��Ƃ�̍L��,�����w����,2022/7/11,2:00,5,1
��Ƃ�̍L��,�����w����,2022/7/11,3:00,6,9
��Ƃ�̍L��,�����w����,2022/7/11,4:00,6,7
��Ƃ�̍L��,�����w����,2022/7/11,5:00,23,10
��Ƃ�̍L��,�����w����,2022/7/11,6:00,22,30
��Ƃ�̍L��,�����w����,2022/7/11,7:00,29,143
��Ƃ�̍L��,�����w����,2022/7/11,8:00,39,133
��Ƃ�̍L��,�����w����,2022/7/11,9:00,35,83
��Ƃ�̍L��,�����w����,2022/7/11,10:00,38,84
��Ƃ�̍L��,�����w����,2022/7/11,11:00,51,79
��Ƃ�̍L��,�����w����,2022/7/11,12:00,47,87
��Ƃ�̍L��,�����w����,2022/7/11,13:00,35,71
��Ƃ�̍L��,�����w����,2022/7/11,14:00,42,70
��Ƃ�̍L��,�����w����,2022/7/11,15:00,49,68
��Ƃ�̍L��,�����w����,2022/7/11,16:00,60,67
��Ƃ�̍L��,�����w����,2022/7/11,17:00,45,72
��Ƃ�̍L��,�����w����,2022/7/11,18:00,52,63
��Ƃ�̍L��,�����w����,2022/7/11,19:00,19,41
��Ƃ�̍L��,�����w����,2022/7/11,20:00,13,32
��Ƃ�̍L��,�����w����,2022/7/11,21:00,12,34
��Ƃ�̍L��,�����w����,2022/7/11,22:00,13,9
��Ƃ�̍L��,�����w����,2022/7/11,23:00,8,8
��Ƃ�̍L��,�����w����,2022/7/12,0:00,12,14
��Ƃ�̍L��,�����w����,2022/7/12,1:00,6,2
��Ƃ�̍L��,�����w����,2022/7/12,2:00,3,2
��Ƃ�̍L��,�����w����,2022/7/12,3:00,7,10
��Ƃ�̍L��,�����w����,2022/7/12,4:00,10,2
��Ƃ�̍L��,�����w����,2022/7/12,5:00,21,12
��Ƃ�̍L��,�����w����,2022/7/12,6:00,37,36
��Ƃ�̍L��,�����w����,2022/7/12,7:00,27,133
��Ƃ�̍L��,�����w����,2022/7/12,8:00,41,131
��Ƃ�̍L��,�����w����,2022/7/12,9:00,49,77
��Ƃ�̍L��,�����w����,2022/7/12,10:00,55,91
��Ƃ�̍L��,�����w����,2022/7/12,11:00,39,68
��Ƃ�̍L��,�����w����,2022/7/12,12:00,80,97
��Ƃ�̍L��,�����w����,2022/7/12,13:00,72,73
��Ƃ�̍L��,�����w����,2022/7/12,14:00,48,64
��Ƃ�̍L��,�����w����,2022/7/12,15:00,62,106
��Ƃ�̍L��,�����w����,2022/7/12,16:00,63,72
��Ƃ�̍L��,�����w����,2022/7/12,17:00,54,50
��Ƃ�̍L��,�����w����,2022/7/12,18:00,61,56
��Ƃ�̍L��,�����w����,2022/7/12,19:00,28,47
��Ƃ�̍L��,�����w����,2022/7/12,20:00,32,45
��Ƃ�̍L��,�����w����,2022/7/12,21:00,23,51
��Ƃ�̍L��,�����w����,2022/7/12,22:00,18,23
��Ƃ�̍L��,�����w����,2022/7/12,23:00,5,9
��Ƃ�̍L��,�����w����,2022/7/13,0:00,14,17
��Ƃ�̍L��,�����w����,2022/7/13,1:00,12,4
��Ƃ�̍L��,�����w����,2022/7/13,2:00,13,6
��Ƃ�̍L��,�����w����,2022/7/13,3:00,11,6
��Ƃ�̍L��,�����w����,2022/7/13,4:00,21,6
��Ƃ�̍L��,�����w����,2022/7/13,5:00,23,12
��Ƃ�̍L��,�����w����,2022/7/13,6:00,34,24
��Ƃ�̍L��,�����w����,2022/7/13,7:00,33,167
��Ƃ�̍L��,�����w����,2022/7/13,8:00,29,145
��Ƃ�̍L��,�����w����,2022/7/13,9:00,39,80
��Ƃ�̍L��,�����w����,2022/7/13,10:00,48,103
��Ƃ�̍L��,�����w����,2022/7/13,11:00,52,83
��Ƃ�̍L��,�����w����,2022/7/13,12:00,76,101
��Ƃ�̍L��,�����w����,2022/7/13,13:00,61,92
��Ƃ�̍L��,�����w����,2022/7/13,14:00,61,71
��Ƃ�̍L��,�����w����,2022/7/13,15:00,66,106
��Ƃ�̍L��,�����w����,2022/7/13,16:00,106,111
��Ƃ�̍L��,�����w����,2022/7/13,17:00,73,84
��Ƃ�̍L��,�����w����,2022/7/13,18:00,30,61
��Ƃ�̍L��,�����w����,2022/7/13,19:00,26,47
��Ƃ�̍L��,�����w����,2022/7/13,20:00,39,52
��Ƃ�̍L��,�����w����,2022/7/13,21:00,18,37
��Ƃ�̍L��,�����w����,2022/7/13,22:00,10,21
��Ƃ�̍L��,�����w����,2022/7/13,23:00,5,13
��Ƃ�̍L��,�����w����,2022/7/14,0:00,7,7
��Ƃ�̍L��,�����w����,2022/7/14,1:00,7,8
��Ƃ�̍L��,�����w����,2022/7/14,2:00,5,2
��Ƃ�̍L��,�����w����,2022/7/14,3:00,9,9
��Ƃ�̍L��,�����w����,2022/7/14,4:00,11,12
��Ƃ�̍L��,�����w����,2022/7/14,5:00,15,14
��Ƃ�̍L��,�����w����,2022/7/14,6:00,30,27
��Ƃ�̍L��,�����w����,2022/7/14,7:00,45,48
��Ƃ�̍L��,�����w����,2022/7/14,8:00,74,88
��Ƃ�̍L��,�����w����,2022/7/14,9:00,57,62
��Ƃ�̍L��,�����w����,2022/7/14,10:00,53,60
��Ƃ�̍L��,�����w����,2022/7/14,11:00,75,58
��Ƃ�̍L��,�����w����,2022/7/14,12:00,65,89
��Ƃ�̍L��,�����w����,2022/7/14,13:00,35,65
��Ƃ�̍L��,�����w����,2022/7/14,14:00,52,38
��Ƃ�̍L��,�����w����,2022/7/14,15:00,60,59
��Ƃ�̍L��,�����w����,2022/7/14,16:00,79,60
��Ƃ�̍L��,�����w����,2022/7/14,17:00,73,62
��Ƃ�̍L��,�����w����,2022/7/14,18:00,127,75
��Ƃ�̍L��,�����w����,2022/7/14,19:00,34,48
��Ƃ�̍L��,�����w����,2022/7/14,20:00,25,51
��Ƃ�̍L��,�����w����,2022/7/14,21:00,44,67
��Ƃ�̍L��,�����w����,2022/7/14,22:00,22,44
��Ƃ�̍L��,�����w����,2022/7/14,23:00,23,24
��Ƃ�̍L��,�����w����,2022/7/15,0:00,5,3
��Ƃ�̍L��,�����w����,2022/7/15,1:00,10,3
��Ƃ�̍L��,�����w����,2022/7/15,2:00,12,5
��Ƃ�̍L��,�����w����,2022/7/15,3:00,13,8
��Ƃ�̍L��,�����w����,2022/7/15,4:00,16,7
��Ƃ�̍L��,�����w����,2022/7/15,5:00,20,12
��Ƃ�̍L��,�����w����,2022/7/15,6:00,32,21
��Ƃ�̍L��,�����w����,2022/7/15,7:00,53,211
��Ƃ�̍L��,�����w����,2022/7/15,8:00,43,159
��Ƃ�̍L��,�����w����,2022/7/15,9:00,75,140
��Ƃ�̍L��,�����w����,2022/7/15,10:00,138,310
��Ƃ�̍L��,�����w����,2022/7/15,11:00,108,170
��Ƃ�̍L��,�����w����,2022/7/15,12:00,120,174
��Ƃ�̍L��,�����w����,2022/7/15,13:00,59,114
��Ƃ�̍L��,�����w����,2022/7/15,14:00,71,75
��Ƃ�̍L��,�����w����,2022/7/15,15:00,59,72
��Ƃ�̍L��,�����w����,2022/7/15,16:00,87,83
��Ƃ�̍L��,�����w����,2022/7/15,17:00,77,129
��Ƃ�̍L��,�����w����,2022/7/15,18:00,112,143
��Ƃ�̍L��,�����w����,2022/7/15,19:00,159,89
��Ƃ�̍L��,�����w����,2022/7/15,20:00,24,37
��Ƃ�̍L��,�����w����,2022/7/15,21:00,22,49
��Ƃ�̍L��,�����w����,2022/7/15,22:00,23,37
��Ƃ�̍L��,�����w����,2022/7/15,23:00,30,36
��Ƃ�̍L��,�����w����,2022/7/16,0:00,28,62
��Ƃ�̍L��,�����w����,2022/7/16,1:00,23,11
��Ƃ�̍L��,�����w����,2022/7/16,2:00,6,3
��Ƃ�̍L��,�����w����,2022/7/16,3:00,13,11
��Ƃ�̍L��,�����w����,2022/7/16,4:00,13,9
��Ƃ�̍L��,�����w����,2022/7/16,5:00,21,14
��Ƃ�̍L��,�����w����,2022/7/16,6:00,25,19
��Ƃ�̍L��,�����w����,2022/7/16,7:00,32,43
��Ƃ�̍L��,�����w����,2022/7/16,8:00,49,60
��Ƃ�̍L��,�����w����,2022/7/16,9:00,109,110
��Ƃ�̍L��,�����w����,2022/7/16,10:00,70,101
��Ƃ�̍L��,�����w����,2022/7/16,11:00,97,132
��Ƃ�̍L��,�����w����,2022/7/16,12:00,146,171
��Ƃ�̍L��,�����w����,2022/7/16,13:00,122,193
��Ƃ�̍L��,�����w����,2022/7/16,14:00,150,203
��Ƃ�̍L��,�����w����,2022/7/16,15:00,144,112
��Ƃ�̍L��,�����w����,2022/7/16,16:00,144,141
��Ƃ�̍L��,�����w����,2022/7/16,17:00,122,137
��Ƃ�̍L��,�����w����,2022/7/16,18:00,149,169
��Ƃ�̍L��,�����w����,2022/7/16,19:00,46,73
��Ƃ�̍L��,�����w����,2022/7/16,20:00,37,64
��Ƃ�̍L��,�����w����,2022/7/16,21:00,43,43
��Ƃ�̍L��,�����w����,2022/7/16,22:00,20,28
��Ƃ�̍L��,�����w����,2022/7/16,23:00,9,11
��Ƃ�̍L��,�����w����,2022/7/17,0:00,18,8
��Ƃ�̍L��,�����w����,2022/7/17,1:00,23,5
��Ƃ�̍L��,�����w����,2022/7/17,2:00,18,6
��Ƃ�̍L��,�����w����,2022/7/17,3:00,16,12
��Ƃ�̍L��,�����w����,2022/7/17,4:00,17,5
��Ƃ�̍L��,�����w����,2022/7/17,5:00,31,15
��Ƃ�̍L��,�����w����,2022/7/17,6:00,28,26
��Ƃ�̍L��,�����w����,2022/7/17,7:00,34,29
��Ƃ�̍L��,�����w����,2022/7/17,8:00,55,80
��Ƃ�̍L��,�����w����,2022/7/17,9:00,40,89
��Ƃ�̍L��,�����w����,2022/7/17,10:00,143,174
��Ƃ�̍L��,�����w����,2022/7/17,11:00,200,202
��Ƃ�̍L��,�����w����,2022/7/17,12:00,200,290
��Ƃ�̍L��,�����w����,2022/7/17,13:00,192,304
��Ƃ�̍L��,�����w����,2022/7/17,14:00,228,246
��Ƃ�̍L��,�����w����,2022/7/17,15:00,198,261
��Ƃ�̍L��,�����w����,2022/7/17,16:00,192,266
��Ƃ�̍L��,�����w����,2022/7/17,17:00,246,212
��Ƃ�̍L��,�����w����,2022/7/17,18:00,185,159
��Ƃ�̍L��,�����w����,2022/7/17,19:00,207,144
��Ƃ�̍L��,�����w����,2022/7/17,20:00,178,127
��Ƃ�̍L��,�����w����,2022/7/17,21:00,289,280
��Ƃ�̍L��,�����w����,2022/7/17,22:00,379,352
��Ƃ�̍L��,�����w����,2022/7/17,23:00,375,337
��Ƃ�̍L��,�����w����,2022/7/18,0:00,142,103
��Ƃ�̍L��,�����w����,2022/7/18,1:00,120,86
��Ƃ�̍L��,�����w����,2022/7/18,2:00,125,97
��Ƃ�̍L��,�����w����,2022/7/18,3:00,155,86
��Ƃ�̍L��,�����w����,2022/7/18,4:00,119,91
��Ƃ�̍L��,�����w����,2022/7/18,5:00,137,84
��Ƃ�̍L��,�����w����,2022/7/18,6:00,120,112
��Ƃ�̍L��,�����w����,2022/7/18,7:00,120,106
��Ƃ�̍L��,�����w����,2022/7/18,8:00,135,135
��Ƃ�̍L��,�����w����,2022/7/18,9:00,146,160
��Ƃ�̍L��,�����w����,2022/7/18,10:00,178,181
��Ƃ�̍L��,�����w����,2022/7/18,11:00,199,182
��Ƃ�̍L��,�����w����,2022/7/18,12:00,190,243
��Ƃ�̍L��,�����w����,2022/7/18,13:00,213,280
��Ƃ�̍L��,�����w����,2022/7/18,14:00,158,217
��Ƃ�̍L��,�����w����,2022/7/18,15:00,100,110
��Ƃ�̍L��,�����w����,2022/7/18,16:00,70,93
��Ƃ�̍L��,�����w����,2022/7/18,17:00,171,210
��Ƃ�̍L��,�����w����,2022/7/18,18:00,266,205
��Ƃ�̍L��,�����w����,2022/7/18,19:00,77,76
��Ƃ�̍L��,�����w����,2022/7/18,20:00,18,22
��Ƃ�̍L��,�����w����,2022/7/18,21:00,17,30
��Ƃ�̍L��,�����w����,2022/7/18,22:00,27,20
��Ƃ�̍L��,�����w����,2022/7/18,23:00,19,7
��Ƃ�̍L��,�����w����,2022/7/19,0:00,25,4
��Ƃ�̍L��,�����w����,2022/7/19,1:00,21,1
��Ƃ�̍L��,�����w����,2022/7/19,2:00,22,5
��Ƃ�̍L��,�����w����,2022/7/19,3:00,17,7
��Ƃ�̍L��,�����w����,2022/7/19,4:00,27,9
��Ƃ�̍L��,�����w����,2022/7/19,5:00,32,10
��Ƃ�̍L��,�����w����,2022/7/19,6:00,31,21
��Ƃ�̍L��,�����w����,2022/7/19,7:00,39,81
��Ƃ�̍L��,�����w����,2022/7/19,8:00,34,91
��Ƃ�̍L��,�����w����,2022/7/19,9:00,156,148
��Ƃ�̍L��,�����w����,2022/7/19,10:00,200,153
��Ƃ�̍L��,�����w����,2022/7/19,11:00,212,153
��Ƃ�̍L��,�����w����,2022/7/19,12:00,192,166
��Ƃ�̍L��,�����w����,2022/7/19,13:00,160,130
��Ƃ�̍L��,�����w����,2022/7/19,14:00,168,179
��Ƃ�̍L��,�����w����,2022/7/19,15:00,171,204
��Ƃ�̍L��,�����w����,2022/7/19,16:00,254,195
��Ƃ�̍L��,�����w����,2022/7/19,17:00,243,172
��Ƃ�̍L��,�����w����,2022/7/19,18:00,204,156
��Ƃ�̍L��,�����w����,2022/7/19,19:00,85,150
��Ƃ�̍L��,�����w����,2022/7/19,20:00,60,124
��Ƃ�̍L��,�����w����,2022/7/19,21:00,20,27
��Ƃ�̍L��,�����w����,2022/7/19,22:00,17,25
��Ƃ�̍L��,�����w����,2022/7/19,23:00,13,9
��Ƃ�̍L��,�����w����,2022/7/20,0:00,15,16
��Ƃ�̍L��,�����w����,2022/7/20,1:00,20,11
��Ƃ�̍L��,�����w����,2022/7/20,2:00,6,1
��Ƃ�̍L��,�����w����,2022/7/20,3:00,13,6
��Ƃ�̍L��,�����w����,2022/7/20,4:00,16,5
��Ƃ�̍L��,�����w����,2022/7/20,5:00,16,8
��Ƃ�̍L��,�����w����,2022/7/20,6:00,23,32
��Ƃ�̍L��,�����w����,2022/7/20,7:00,35,153
��Ƃ�̍L��,�����w����,2022/7/20,8:00,26,134
��Ƃ�̍L��,�����w����,2022/7/20,9:00,68,99
��Ƃ�̍L��,�����w����,2022/7/20,10:00,76,105
��Ƃ�̍L��,�����w����,2022/7/20,11:00,63,97
��Ƃ�̍L��,�����w����,2022/7/20,12:00,90,74
��Ƃ�̍L��,�����w����,2022/7/20,13:00,68,77
��Ƃ�̍L��,�����w����,2022/7/20,14:00,50,73
��Ƃ�̍L��,�����w����,2022/7/20,15:00,55,68
��Ƃ�̍L��,�����w����,2022/7/20,16:00,89,77
��Ƃ�̍L��,�����w����,2022/7/20,17:00,52,59
��Ƃ�̍L��,�����w����,2022/7/20,18:00,45,70
��Ƃ�̍L��,�����w����,2022/7/20,19:00,20,46
��Ƃ�̍L��,�����w����,2022/7/20,20:00,18,45
��Ƃ�̍L��,�����w����,2022/7/20,21:00,17,36
��Ƃ�̍L��,�����w����,2022/7/20,22:00,11,19
��Ƃ�̍L��,�����w����,2022/7/20,23:00,6,3
��Ƃ�̍L��,�����w����,2022/7/21,0:00,9,3
��Ƃ�̍L��,�����w����,2022/7/21,1:00,5,0
��Ƃ�̍L��,�����w����,2022/7/21,2:00,6,6
��Ƃ�̍L��,�����w����,2022/7/21,3:00,9,15
��Ƃ�̍L��,�����w����,2022/7/21,4:00,9,5
��Ƃ�̍L��,�����w����,2022/7/21,5:00,14,11
��Ƃ�̍L��,�����w����,2022/7/21,6:00,18,27
��Ƃ�̍L��,�����w����,2022/7/21,7:00,30,69
��Ƃ�̍L��,�����w����,2022/7/21,8:00,33,127
��Ƃ�̍L��,�����w����,2022/7/21,9:00,38,80
��Ƃ�̍L��,�����w����,2022/7/21,10:00,57,94
��Ƃ�̍L��,�����w����,2022/7/21,11:00,60,69
��Ƃ�̍L��,�����w����,2022/7/21,12:00,48,69
��Ƃ�̍L��,�����w����,2022/7/21,13:00,48,81
��Ƃ�̍L��,�����w����,2022/7/21,14:00,54,75
��Ƃ�̍L��,�����w����,2022/7/21,15:00,54,58
��Ƃ�̍L��,�����w����,2022/7/21,16:00,60,69
��Ƃ�̍L��,�����w����,2022/7/21,17:00,55,58
��Ƃ�̍L��,�����w����,2022/7/21,18:00,58,74
��Ƃ�̍L��,�����w����,2022/7/21,19:00,123,143
��Ƃ�̍L��,�����w����,2022/7/21,20:00,112,113
��Ƃ�̍L��,�����w����,2022/7/21,21:00,21,40
��Ƃ�̍L��,�����w����,2022/7/21,22:00,9,22
��Ƃ�̍L��,�����w����,2022/7/21,23:00,1,5
��Ƃ�̍L��,�����w����,2022/7/22,0:00,6,11
��Ƃ�̍L��,�����w����,2022/7/22,1:00,4,1
��Ƃ�̍L��,�����w����,2022/7/22,2:00,9,4
��Ƃ�̍L��,�����w����,2022/7/22,3:00,4,10
��Ƃ�̍L��,�����w����,2022/7/22,4:00,4,6
��Ƃ�̍L��,�����w����,2022/7/22,5:00,13,17
��Ƃ�̍L��,�����w����,2022/7/22,6:00,17,18
��Ƃ�̍L��,�����w����,2022/7/22,7:00,18,60
��Ƃ�̍L��,�����w����,2022/7/22,8:00,28,76
��Ƃ�̍L��,�����w����,2022/7/22,9:00,93,122
��Ƃ�̍L��,�����w����,2022/7/22,10:00,80,120
��Ƃ�̍L��,�����w����,2022/7/22,11:00,72,101
��Ƃ�̍L��,�����w����,2022/7/22,12:00,72,112
��Ƃ�̍L��,�����w����,2022/7/22,13:00,57,107
��Ƃ�̍L��,�����w����,2022/7/22,14:00,66,102
��Ƃ�̍L��,�����w����,2022/7/22,15:00,81,78
��Ƃ�̍L��,�����w����,2022/7/22,16:00,106,111
��Ƃ�̍L��,�����w����,2022/7/22,17:00,137,140
��Ƃ�̍L��,�����w����,2022/7/22,18:00,188,136
��Ƃ�̍L��,�����w����,2022/7/22,19:00,189,182
��Ƃ�̍L��,�����w����,2022/7/22,20:00,251,214
��Ƃ�̍L��,�����w����,2022/7/22,21:00,214,201
��Ƃ�̍L��,�����w����,2022/7/22,22:00,301,255
��Ƃ�̍L��,�����w����,2022/7/22,23:00,297,219
��Ƃ�̍L��,�����w����,2022/7/23,0:00,115,95
��Ƃ�̍L��,�����w����,2022/7/23,1:00,13,14
��Ƃ�̍L��,�����w����,2022/7/23,2:00,7,6
��Ƃ�̍L��,�����w����,2022/7/23,3:00,11,10
��Ƃ�̍L��,�����w����,2022/7/23,4:00,22,6
��Ƃ�̍L��,�����w����,2022/7/23,5:00,28,7
��Ƃ�̍L��,�����w����,2022/7/23,6:00,18,26
��Ƃ�̍L��,�����w����,2022/7/23,7:00,23,53
��Ƃ�̍L��,�����w����,2022/7/23,8:00,34,70
��Ƃ�̍L��,�����w����,2022/7/23,9:00,43,72
��Ƃ�̍L��,�����w����,2022/7/23,10:00,81,116
��Ƃ�̍L��,�����w����,2022/7/23,11:00,119,148
��Ƃ�̍L��,�����w����,2022/7/23,12:00,143,175
��Ƃ�̍L��,�����w����,2022/7/23,13:00,128,193
��Ƃ�̍L��,�����w����,2022/7/23,14:00,118,181
��Ƃ�̍L��,�����w����,2022/7/23,15:00,77,80
��Ƃ�̍L��,�����w����,2022/7/23,16:00,0,0
��Ƃ�̍L��,�����w����,2022/7/23,17:00,0,0
��Ƃ�̍L��,�����w����,2022/7/23,18:00,0,0
��Ƃ�̍L��,�����w����,2022/7/23,19:00,0,0
��Ƃ�̍L��,�����w����,2022/7/23,20:00,0,0
��Ƃ�̍L��,�����w����,2022/7/23,21:00,0,0
��Ƃ�̍L��,�����w����,2022/7/23,22:00,0,0
��Ƃ�̍L��,�����w����,2022/7/23,23:00,0,0
��Ƃ�̍L��,�����w����,2022/7/24,0:00,0,0
��Ƃ�̍L��,�����w����,2022/7/24,1:00,0,0
��Ƃ�̍L��,�����w����,2022/7/24,2:00,0,0
��Ƃ�̍L��,�����w����,2022/7/24,3:00,0,0
��Ƃ�̍L��,�����w����,2022/7/24,4:00,0,0
��Ƃ�̍L��,�����w����,2022/7/24,5:00,0,0
��Ƃ�̍L��,�����w����,2022/7/24,6:00,0,0
��Ƃ�̍L��,�����w����,2022/7/24,7:00,0,0
��Ƃ�̍L��,�����w����,2022/7/24,8:00,0,0
��Ƃ�̍L��,�����w����,2022/7/24,9:00,0,0
��Ƃ�̍L��,�����w����,2022/7/24,10:00,0,0
��Ƃ�̍L��,�����w����,2022/7/24,11:00,0,0
��Ƃ�̍L��,�����w����,2022/7/24,12:00,0,0
��Ƃ�̍L��,�����w����,2022/7/24,13:00,0,0